(280442) = 2004 BA86

Discovered at Socorro on 2004-01-29 by LINEAR.

Orbit

Orbit type: Phocaea

Note: WebGL enabled browser required.

epoch2023-09-13.0
epoch JD2460200.5
perihelion date2020-08-03.54884
perihelion JD2459065.04884
argument of perihelion (°)226.50591
ascending node (°)152.64417
inclination (°)23.73291
eccentricity0.2257932
perihelion distance (AU)1.7748438
Tisserand w.r.t. Jupiter3.5
ΔV w.r.t. Earth (km/sec)11.0
semimajor axis (AU)2.2924675
mean anomaly (°)322.41670
mean daily motion (°/day)0.28395470
aphelion distance (AU)2.810
period (years)3.47
P-vector [x]0.91647138
P-vector [y]0.36712156
P-vector [z]-0.15906593
Q-vector [x]-0.35479059
Q-vector [y]0.92946947
Q-vector [z]0.10104525
absolute magnitude16.29
phase slope0.15
uncertainty0
referenceMPEC 2024-A34
observations used555
oppositions13
arc length (days)8808
first opposition used1999
last opposition used2023
residual rms (arc-secs)0.75
perturbers coarse indicatorM-v
perturbers precise indicator003Ek
first observation date used1999-09-30.0
last observation date used2023-11-11.0
computer nameMPCLINUX
JD of orbit computation2456670.721655
perihelion JD uncertainty (days)6.1787E-05
argument of perihelion uncertainty (°)2.8896E-05
ascending node uncertainty (°)2.2046E-05
inclination uncertainty (°)8.3057E-06
eccentricity uncertainty 1.1742E-07
perihelion distance uncertainty (AU)2.6833E-07
Minimum Orbit Intersection Distances (in AU)
for orbit epoch: 2460200.5, reference: E2024-A34
Mercury1.4304
Venus1.07393
Earth0.82474
Mars0.45675
Jupiter2.7415
Saturn6.70831
Uranus15.7427
Neptune27.8971

Observations

556 total observations over interval: 1999 09 30.31656 – 2023 11 11.116468
These data are available for download (format description).

Date (UT) J2000 RA J2000 Dec Magn Location Ref
1999 09 30.31656 02 31 20.41 -22 00 30.0 18.6   704 – Lincoln Laboratory ETS, New Mexico MPS 115262
1999 09 30.32965 02 31 20.27 -22 00 48.6 18.4   704 – Lincoln Laboratory ETS, New Mexico MPS 115262
1999 09 30.34269 02 31 20.23 -22 01 06.8 19.0   704 – Lincoln Laboratory ETS, New Mexico MPS 115262
1999 09 30.36876 02 31 19.97 -22 01 46.2 18.8   704 – Lincoln Laboratory ETS, New Mexico MPS 115262
1999 11 30.15617 02 05 51.74 -29 06 16.5 16.9   704 – Lincoln Laboratory ETS, New Mexico MPS 115262
1999 11 30.17084 02 05 51.73 -29 06 07.3 16.9   704 – Lincoln Laboratory ETS, New Mexico MPS 115262
1999 11 30.18551 02 05 51.64 -29 05 57.7 17.2   704 – Lincoln Laboratory ETS, New Mexico MPS 115262
1999 11 30.20016 02 05 51.68 -29 05 48.4 17.0   704 – Lincoln Laboratory ETS, New Mexico MPS 115262
2004 01 29.27530 09 04 49.68 +02 33 13.7 19.4   704 – Lincoln Laboratory ETS, New Mexico MPS 97969
2004 01 29.28755 09 04 48.96 +02 33 24.6 19.6   704 – Lincoln Laboratory ETS, New Mexico MPS 97969
2004 01 29.29963 09 04 48.20 +02 33 34.3 19.6   704 – Lincoln Laboratory ETS, New Mexico MPS 97969
2004 01 29.31182 09 04 47.43 +02 33 45.3 19.3   704 – Lincoln Laboratory ETS, New Mexico MPS 97969
2004 01 29.32398 09 04 46.64 +02 33 55.2 19.9   704 – Lincoln Laboratory ETS, New Mexico MPS 97969
2004 01 30.28569 09 03 49.40 +02 47 27.1 19.9   704 – Lincoln Laboratory ETS, New Mexico MPS 97969
2004 01 30.29821 09 03 48.66 +02 47 37.9 19.1   704 – Lincoln Laboratory ETS, New Mexico MPS 97969
2004 01 30.31099 09 03 47.84 +02 47 47.6 19.2   704 – Lincoln Laboratory ETS, New Mexico MPS 97969
2004 01 30.32338 09 03 47.08 +02 47 59.0 19.8   704 – Lincoln Laboratory ETS, New Mexico MPS 97969
2004 02 02.28961 09 00 49.66 +03 30 37.7 19.3   704 – Lincoln Laboratory ETS, New Mexico MPS 98875
2004 02 02.30195 09 00 48.86 +03 30 47.8 19.8   704 – Lincoln Laboratory ETS, New Mexico MPS 98875
2004 02 02.31441 09 00 48.03 +03 31 00.4 19.7   704 – Lincoln Laboratory ETS, New Mexico MPS 98875
2004 02 02.32690 09 00 47.30 +03 31 10.8 20.0   704 – Lincoln Laboratory ETS, New Mexico MPS 98875
2004 02 03.28243 08 59 50.18 +03 45 11.9 19.0   704 – Lincoln Laboratory ETS, New Mexico MPS 98875
2004 02 03.29608 08 59 49.36 +03 45 23.2 19.5   704 – Lincoln Laboratory ETS, New Mexico MPS 98875
2004 02 03.30983 08 59 48.47 +03 45 36.1 19.4   704 – Lincoln Laboratory ETS, New Mexico MPS 98875
2004 02 11.28950 08 52 02.09 +05 45 52.2 19.3   644 – Palomar Mountain/NEAT MPS 98875
2004 02 11.31010 08 52 00.89 +05 46 10.8 19.2   644 – Palomar Mountain/NEAT MPS 98875
2004 02 11.34677 08 51 58.74 +05 46 44.7 19.4   644 – Palomar Mountain/NEAT MPS 98875
2004 02 23.23172 08 42 00.06 +08 46 09.1 19.5   704 – Lincoln Laboratory ETS, New Mexico MPS 100135
2004 02 23.24469 08 41 59.54 +08 46 19.9 19.8   704 – Lincoln Laboratory ETS, New Mexico MPS 100135
2004 02 23.25738 08 41 58.91 +08 46 31.1 19.6   704 – Lincoln Laboratory ETS, New Mexico MPS 100135
2004 02 23.26964 08 41 58.35 +08 46 41.8 19.8   704 – Lincoln Laboratory ETS, New Mexico MPS 100135
2004 02 23.28197 08 41 57.80 +08 46 53.3 19.9   704 – Lincoln Laboratory ETS, New Mexico MPS 100135
2004 02 26.23045 08 39 57.74 +09 29 28.3 19.6   704 – Lincoln Laboratory ETS, New Mexico MPS 100135
2004 02 26.24243 08 39 57.28 +09 29 37.3 20.6   704 – Lincoln Laboratory ETS, New Mexico MPS 100135
2004 02 26.26709 08 39 56.21 +09 30 03.2 20.2   704 – Lincoln Laboratory ETS, New Mexico MPS 100135
2004 02 26.27906 08 39 55.78 +09 30 09.4 20.0   704 – Lincoln Laboratory ETS, New Mexico MPS 100135
2006 09 24.45080 03 36 11.77 -15 50 35.1 18.7 V 703 – Catalina Sky Survey MPS 181018
2006 09 24.45663 03 36 11.95 -15 50 43.5 18.5 V 703 – Catalina Sky Survey MPS 181018
2006 09 24.46249 03 36 12.20 -15 50 51.1 18.8 V 703 – Catalina Sky Survey MPS 181018
2006 09 24.46834 03 36 12.38 -15 50 58.3 18.6 V 703 – Catalina Sky Survey MPS 181018
2006 09 27.47375 03 37 56.28 -16 58 28.2 18.2 V 703 – Catalina Sky Survey MPS 181018
2006 09 27.47699 03 37 56.38 -16 58 32.4 18.4 V 703 – Catalina Sky Survey MPS 181018
2006 09 27.48024 03 37 56.46 -16 58 37.3 18.0 V 703 – Catalina Sky Survey MPS 181018
2006 09 27.48352 03 37 56.53 -16 58 41.6 18.1 V 703 – Catalina Sky Survey MPS 181018
2006 10 11.67814 03 41 13.38 -22 05 09.8 18.4 V E12 – Siding Spring Survey MPS 182460
2006 10 11.68847 03 41 13.30 -22 05 22.7 18.2 V E12 – Siding Spring Survey MPS 182460
2006 10 11.70919 03 41 13.20 -22 05 47.4 18.6 V E12 – Siding Spring Survey MPS 182460
2006 10 22.59981 03 38 20.54 -25 23 07.1 18.5 V E12 – Siding Spring Survey MPS 184048
2006 10 22.60925 03 38 20.32 -25 23 16.0 18.2 V E12 – Siding Spring Survey MPS 184048
2006 10 22.61902 03 38 19.96 -25 23 26.4 18.3 V E12 – Siding Spring Survey MPS 184048
2006 10 22.62884 03 38 19.71 -25 23 34.6 18.6 V E12 – Siding Spring Survey MPS 184048
2006 10 31.54264 03 33 07.09 -27 21 32.3 18.3 V E12 – Siding Spring Survey MPS 185429
2006 10 31.55116 03 33 06.73 -27 21 37.8 18.1 V E12 – Siding Spring Survey MPS 185429
2006 10 31.55976 03 33 06.30 -27 21 44.0 18.5 V E12 – Siding Spring Survey MPS 185429
2006 10 31.56845 03 33 05.83 -27 21 49.1 18.7 V E12 – Siding Spring Survey MPS 185429
2006 11 18.59182 03 19 02.67 -28 45 56.1 19.1 V E12 – Siding Spring Survey MPS 188643
2006 11 18.60038 03 19 02.28 -28 45 55.4 18.9 V E12 – Siding Spring Survey MPS 188643
2006 11 18.60902 03 19 01.66 -28 45 55.1 20.5 V E12 – Siding Spring Survey MPS 188643
2006 11 18.61762 03 19 01.41 -28 45 53.2 19.5 V E12 – Siding Spring Survey MPS 188643
2011 01 13.36424 09 50 06.18 +00 36 33.5 19.9 V 703 – Catalina Sky Survey MPS 365474
2011 01 13.37060 09 50 06.00 +00 36 37.0 19.6 V 703 – Catalina Sky Survey MPS 365474
2011 01 13.37698 09 50 05.67 +00 36 40.5 19.5 V 703 – Catalina Sky Survey MPS 365474
2011 01 13.38334 09 50 05.46 +00 36 43.4 19.2 V 703 – Catalina Sky Survey MPS 365474
2011 01 26.30510 09 40 27.58 +02 59 50.7 19.6 V 703 – Catalina Sky Survey MPS 366966
2011 01 26.31209 09 40 27.26 +02 59 54.1 19.3 V 703 – Catalina Sky Survey MPS 366966
2011 01 26.31900 09 40 26.79 +02 59 59.6 19.3 V 703 – Catalina Sky Survey MPS 366966
2011 01 30.35591 09 36 48.20 +03 53 07.7 19.8 V G96 – Mt. Lemmon Survey MPS 368526
2011 01 30.36392 09 36 47.77 +03 53 14.3 19.9 V G96 – Mt. Lemmon Survey MPS 368526
2011 01 30.37999 09 36 46.83 +03 53 27.3 19.8 V G96 – Mt. Lemmon Survey MPS 368526
2011 03 04.18749 09 07 34.71 +11 46 50.9 19.7 V 703 – Catalina Sky Survey MPS 373398
2011 03 04.19703 09 07 34.32 +11 46 57.3 20.5 V 703 – Catalina Sky Survey MPS 373398
2011 03 04.20662 09 07 33.92 +11 47 04.9 20.1 V 703 – Catalina Sky Survey MPS 373398
2011 03 04.21622 09 07 33.56 +11 47 12.2 19.8 V 703 – Catalina Sky Survey MPS 373398
2011 03 25.27038 08 59 54.74 +15 39 05.7 20.6 V 291 – LPL/Spacewatch II MPS 375507
2011 03 25.27443 08 59 54.72 +15 39 07.5 20.6 V 291 – LPL/Spacewatch II MPS 375507
2011 03 25.27823 08 59 54.70 +15 39 09.5 20.5 V 291 – LPL/Spacewatch II MPS 375507
2011 05 29.26099 09 42 32.096 +18 26 39.75 21.8 w F51 – Pan-STARRS 1, Haleakala MPS 383979
2011 05 29.26573 09 42 32.410 +18 26 39.01 21.6 w F51 – Pan-STARRS 1, Haleakala MPS 383979
2011 05 29.27050 09 42 32.730 +18 26 38.64 21.9 w F51 – Pan-STARRS 1, Haleakala MPS 383979
2011 05 29.27532 09 42 33.056 +18 26 37.91 21.7 w F51 – Pan-STARRS 1, Haleakala MPS 383979
2012 05 15.32850 15 37 56.433 +17 33 25.54 20.6 r F51 – Pan-STARRS 1, Haleakala MPS 424858
2012 05 15.33829 15 37 55.853 +17 33 28.01 20.5 r F51 – Pan-STARRS 1, Haleakala MPS 424858
2012 05 15.34981 15 37 55.175 +17 33 31.43 21.1 g F51 – Pan-STARRS 1, Haleakala MPS 424858
2012 05 15.36015 15 37 54.568 +17 33 34.17 20.9 g F51 – Pan-STARRS 1, Haleakala MPS 424858
2013 10 01.42017 04 36 30.91 -14 16 58.1 19.3 G G45 – Space Surveillance Telescope, Atom Site MPS 1608861
2013 10 01.44187 04 36 31.82 -14 17 22.9 19.2 G G45 – Space Surveillance Telescope, Atom Site MPS 1608861
2013 10 01.45847 04 36 32.55 -14 17 42.4 19.1 G G45 – Space Surveillance Telescope, Atom Site MPS 1608861
2013 10 01.47263 04 36 33.15 -14 17 58.1 19.2 G G45 – Space Surveillance Telescope, Atom Site MPS 1608861
2013 10 01.49078 04 36 33.92 -14 18 18.3 19.2 G G45 – Space Surveillance Telescope, Atom Site MPS 1608861
